Weather Roundup
Issued by NWS

Home | Current Version | Previous Version | Graphics & Text | Print | Product List | Glossary Off
Versions: 1 2 3 4 5 6 7 8 9 10 11 12 13 14 15 16 17 18 19 20 21 22 23 24 25 26 27 28 29 30 31 32 33 34 35 36 37 38 39 40 41 42 43 44 45 46 47 48 49 50

000
NZUS93 KARX 041310
HRRWXR

CURRENT HOURLY OBSERVATIONS ACROSS
MUCH OF THE UPPER MISSISSIPPI VALLEY
NATIONAL WEATHER SERVICE LA CROSSE WI
700 AM CST WED MAR 04 2015


...SOUTHEAST MINNESOTA...


CITY           SKY/WX    TMP DP  RH WIND       PRES   REMARKS
ROCHESTER      CLEAR     -1  -9  68 NW14      30.10R WCI -20
ROCHESTER/MAYO FAIR       0  -7  70 W15G21    30.12S WCI -19
WINONA         CLEAR      5  -4  66 NW9       30.17R WCI  -9
AUSTIN         PTCLDY     0  -8  71 NW9       30.13R WCI -16
ALBERT LEA     PTCLDY     0  -8  71 NW5       30.14S WCI -10
DODGE CENTER   PTCLDY     0  -6  78 W10       30.11R WCI -17
PRESTON        CLEAR     -1  -7  74 NW14      30.11S WCI -20
OWATONNA       PTCLDY    -2  -9  71 W7        30.15R WCI -16
FARIBAULT      CLEAR     -2  -9  71 W6        30.15S WCI -14
$$

...ELSEWHERE IN MINNESOTA...


CITY           SKY/WX    TMP DP  RH WIND       PRES   REMARKS
MINNEAPOLIS    PTCLDY    -1  -9  68 W8        30.16R WCI -15
INTNL FALLS    CLEAR    -16 -21  78 W6        29.99R WCI -31
DULUTH         PTCLDY    -8 -14  74 W9        29.97R WCI -25
RED WING       CLEAR      0  -9  65 W6        30.15R WCI -12
REDWOOD FALLS  CLEAR     -3 -10  72 W8        30.18R WCI -18
MANKATO        CLEAR      0  -9  65 W8        30.16R WCI -15
FAIRMONT       PTCLDY     1  -8  66 W8        30.15S WCI -12
$$

...SOUTHWEST WISCONSIN...


CITY           SKY/WX    TMP DP  RH WIND       PRES   REMARKS
LA CROSSE      CLEAR      5  -5  63 W8        30.15R WCI  -8
PRAIRIE DU CHI PTCLDY     7  -5  57 NW12      30.16R WCI  -8
BOSCOBEL       FAIR       8  -3  61 NW8       30.14R WCI  -4
LONE ROCK      PTCLDY     9  -2  61 W13       30.11R WCI  -7
PLATTEVILLE    MOCLDY     7   1  74 W9        30.10R WCI  -6
FORT MC COY    CLEAR      4  -4  68 W3        30.12R
CAMP DOUGLAS   PTCLDY     3  -4  72 W9        30.09R WCI -11
VIROQUA        FAIR       4  -3  74 NW12      30.07R WCI -13
WIS DELLS      PTCLDY     7  -3  63 CALM      30.06R
$$

...ELSEWHERE IN WISCONSIN...


CITY           SKY/WX    TMP DP  RH WIND       PRES   REMARKS
MILWAUKEE      MOCLDY    16   3  56 NW15      30.03R WCI   1
MADISON        MOCLDY    10   2  69 NW8       30.05R WCI  -2
GREEN BAY      CLEAR      9   0  67 W12       29.99R WCI  -6
EAU CLAIRE     CLEAR     -2 -10  69 W7        30.10R WCI -15
BLACK RVR FLS  FAIR       3  -7  63 W6        30.11R WCI  -8
MEDFORD        CLEAR     -3  -8  79 W12       29.97R WCI -21
WAUSAU         CLEAR      0  -8  69 NW8       29.98R WCI -14
WIS RAPIDS     CLEAR      3  -7  63 W12       30.06R WCI -13
MARSHFIELD     CLEAR      1  -8  66 W12       30.01R WCI -16
RICE LAKE      CLEAR     -5 -11  77 W3        30.09R
$$

...NORTHEAST IOWA...


CITY           SKY/WX    TMP DP  RH WIND       PRES   REMARKS
DECORAH        PTCLDY     3  -6  66 NW14      30.12R WCI -15
MASON CITY     PTCLDY     1  -7  68 NW10      30.18R WCI -15
CHARLES CITY   PTCLDY     3  -6  66 NW14      30.17R WCI -15
OELWEIN        PTCLDY     5  -2  72 NW13      30.16R WCI -12
$$

...ELSEWHERE IN IOWA...


CITY           SKY/WX    TMP DP  RH WIND       PRES   REMARKS
DES MOINES     PTCLDY    12  -1  56 NW8       30.24R WCI   0
IOWA CITY      CLOUDY    12   0  58 NW13G25   30.20R WCI  -3
FORT DODGE     PTCLDY     7  -4  61 NW5       30.21S WCI  -2
$$

...NORTHERN ILLINOIS...


CITY           SKY/WX    TMP DP  RH WIND       PRES   REMARKS
CHICAGO-OHARE  MOCLDY    17  10  74 NW9       30.02R WCI   6
CHICAGO-MIDWAY MOCLDY    20  13  74 NW10      30.03R WCI   9
MOLINE         CLOUDY    11   1  64 NW14      30.14R WCI  -5
ROCKFORD       CLOUDY    13   4  67 NW12      30.08R WCI  -1
PEORIA         PTCLDY    13   2  61 NW9G17    30.12R WCI   1
$$

NOTE: "FAIR" INDICATES FEW OR NO CLOUDS BELOW 12,000 FEET WITH NO
SIGNIFICANT WEATHER AND/OR OBSTRUCTIONS TO VISIBILITY. WIND
SPEEDS ARE IN MILES-PER-HOUR.



USA.gov is the U.S. government's official web portal to all federal, state and local government web resources and services.